Location: Brantford
(43.1330°N, 80.2670°W)
Time: 19:26:22
(UTC-04:00)

Envisat - Visible Passes

Search period start: 23 September 2020 00:00
Search period end: 03 October 2020 00:00
Orbit: 764 x 766 km, 98.1° (Epoch: 23 September)

Date Brightness Start Highest point End Pass type
(mag) Time Alt. Az. Time Alt. Az. Time Alt. Az.
24 Sep 6.0 19:44:52 10° SW 19:48:31 20° W 19:52:13 10° NW visible
25 Sep 6.1 06:13:24 10° NE 06:16:33 16° E 06:19:41 10° SE visible
26 Sep 6.6 20:12:52 10° WSW 20:14:16 11° W 20:15:42 10° WNW visible
27 Sep 5.5 06:37:52 10° NE 06:42:14 28° E 06:46:34 10° SSE visible
27 Sep 5.7 19:32:56 10° SSW 19:37:04 25° W 19:41:14 10° NW visible
28 Sep 6.4 06:02:50 10° ENE 06:05:03 13° E 06:07:16 10° ESE visible
29 Sep 6.3 20:00:03 10° WSW 20:02:46 14° W 20:05:30 10° WNW visible
30 Sep 5.8 06:26:50 10° NE 06:30:47 22° E 06:34:42 10° SE visible
02 Oct 4.8 06:51:40 10° NNE 06:56:25 38° E 07:01:07 10° SSE visible
02 Oct 6.1 19:47:49 10° SW 19:51:17 18° W 19:54:45 10° NW visible
